Temperature
20 20 20 19 19 19 19 18 18 18 18 18 17 17 17 17 17 17 17 17 17 17 16 16 16 16 16 16 16 16 15 15 15 14 14 13 13 13 13 13 13 13 12
20 20 20 19 19 19 19 18 18 18 18 17 17 17 17 17 17 17 16 16 16 16 16 16 16 15 15 15 15 15 15 15 15 14 13 13 13 13 12 12 12 12 12
20 20 19 19 19 19 18 18 18 18 17 17 17 17 17 16 16 16 16 16 16 16 16 16 15 15 15 15 15 15 15 14 14 14 14 13 13 12 12 12 12 12 12
20 20 19 19 19 19 18 18 18 17 17 17 17 17 16 16 16 16 16 16 16 15 15 15 15 15 15 15 15 15 14 14 14 14 13 13 13 12 12 12 12 11 11
20 20 19 19 19 19 18 18 18 17 17 17 17 17 16 16 16 16 16 15 15 15 15 15 15 15 14 14 14 14 14 14 14 13 13 13 12 12 12 12 11 11 11
20 20 19 19 18 18 18 18 17 17 17 17 17 16 16 16 16 16 16 15 15 15 15 15 15 14 14 14 14 14 14 14 14 13 13 13 12 12 12 11 11 11 11
20 19 19 19 18 18 18 18 17 17 17 17 17 17 16 16 16 16 16 15 15 15 14 14 14 14 14 14 14 14 14 14 13 13 13 13 12 12 12 11 11 11 11
20 19 19 18 18 18 17 17 17 17 17 17 17 17 16 16 16 16 15 15 15 15 14 14 14 14 14 14 14 13 13 13 13 13 13 12 12 12 12 11 11 11 11
20 19 19 19 18 18 17 17 17 17 17 17 17 16 16 16 16 15 15 15 15 14 14 14 14 14 14 13 13 13 13 13 13 12 12 12 12 12 12 11 11 11 10
20 19 19 18 18 18 18 18 17 17 17 16 16 16 16 16 16 15 15 15 15 14 14 14 14 14 13 13 13 13 12 12 12 12 12 12 12 11 11 11 11 10 10
20 19 19 18 18 18 18 18 17 17 16 16 16 16 16 16 16 15 15 15 14 14 14 14 14 13 13 13 13 12 12 12 12 12 12 12 11 11 11 11 11 11 10
19 19 19 18 18 18 17 17 17 17 16 16 16 16 15 15 16 15 15 15 14 14 14 14 13 13 13 13 12 12 12 12 11 11 11 11 11 11 11 11 10 10 10
19 19 18 18 18 17 17 17 17 16 16 16 16 15 15 15 15 15 15 15 14 14 14 14 13 13 13 12 12 12 12 11 11 11 11 11 11 11 11 11 11 10 10
19 18 18 18 17 17 17 17 16 16 16 16 15 15 15 15 15 15 15 14 14 14 13 13 13 13 12 12 12 12 12 11 11 11 11 11 11 11 11 11 10 10 10
18 18 18 18 17 17 17 16 16 16 16 16 16 15 15 15 15 15 15 15 14 14 13 13 13 12 12 12 12 12 11 11 11 11 11 11 11 11 11 10 10 10 10
18 18 18 17 17 17 17 16 16 16 16 16 16 16 15 15 15 15 15 14 14 13 13 13 13 12 12 12 12 11 11 11 11 11 11 11 11 11 10 10 10 10 10
18 17 17 17 17 16 16 16 16 16 16 16 16 15 15 15 15 15 14 14 13 13 13 13 12 12 12 12 11 11 11 11 11 11 11 10 10 10 10 10 10 10 10
17 17 17 17 17 16 16 16 16 16 16 16 16 15 15 15 15 14 14 14 13 13 13 12 12 12 12 12 11 11 11 11 11 10 10 10 10 10 10 10 10 10 10
17 17 17 17 17 16 16 16 16 16 16 16 16 15 15 15 14 14 14 13 13 13 13 12 12 12 12 12 11 11 11 11 10 10 10 10 10 10 10 10 10 10 10
17 17 17 17 17 16 16 16 16 16 16 15 15 15 15 15 14 14 14 13 13 13 13 12 12 12 11 11 11 11 10 10 10 10 10 10 10 10 10 10 10 10 9
17 17 17 16 16 16 16 16 16 16 16 15 15 15 15 15 15 14 14 14 13 13 13 12 12 12 11 11 11 10 10 10 10 10 9 9 9 9 9 9 9 9 9
16 16 16 16 16 16 16 16 16 16 16 15 15 15 15 14 14 14 14 13 13 13 12 12 11 11 11 11 10 10 10 10 9 9 9 9 9 9 9 9 9 9 9
16 16 16 16 16 16 16 16 16 15 15 15 15 15 14 14 14 14 13 13 13 12 12 12 11 11 11 10 10 10 10 9 9 9 9 9 9 8 9 9 9 9 9
15 16 16 16 16 15 15 15 15 15 15 15 14 14 14 14 13 13 13 12 12 12 12 11 11 11 10 10 10 10 9 9 9 9 8 8 8 8 8 8 8 8 8
15 15 15 15 15 15 15 15 15 15 15 14 14 14 13 13 13 12 12 12 12 11 11 11 11 10 10 10 10 9 9 9 9 8 8 8 8 8 8 8 8 8 8
15 15 15 15 15 15 15 15 15 14 14 14 14 13 13 13 12 12 12 12 11 11 11 10 10 10 10 9 9 9 9 9 8 8 8 8 8 7 7 7 7 7 7
Wind_Speed
7 5 4 5 5 3 2 2 1 2 2 3 2 2 2 2 2 2 2 2 2 3 3 3 2 2 2 1 1 0 1 2 2 2 2 3 4 5 7 7 8 8 8
8 7 6 5 5 4 4 3 2 2 3 3 2 2 2 2 2 2 2 2 2 3 3 3 2 2 2 2 1 1 1 2 3 3 2 2 3 4 5 5 6 6 7
9 8 7 6 6 5 4 3 3 3 3 3 2 2 2 2 2 2 2 2 2 2 2 2 2 2 2 2 2 2 2 2 3 3 3 2 2 3 4 3 5 5 6
9 9 8 7 6 6 5 4 3 3 3 3 2 2 2 2 2 2 1 1 1 1 2 2 2 2 2 2 2 2 2 2 2 3 4 3 3 2 3 3 2 2 2
9 8 8 7 6 5 5 4 4 3 4 3 3 2 2 1 1 1 1 1 2 2 2 3 4 5 6 3 3 2 2 2 2 3 3 3 2 2 2 2 2 2 2
8 8 7 7 7 6 5 4 4 3 3 3 3 2 2 1 3 3 2 1 2 2 2 3 4 4 5 6 6 5 4 2 1 2 2 3 2 2 2 2 2 2 1
8 8 8 8 7 6 6 5 4 4 3 3 3 3 2 2 4 4 3 2 2 2 2 2 3 4 4 4 4 5 5 5 4 1 2 2 2 2 2 2 2 2 1
7 8 8 8 8 6 6 5 4 4 3 3 3 3 3 2 3 3 3 1 2 2 2 3 3 4 4 3 2 3 3 4 3 2 2 1 1 2 2 2 2 2 1
8 8 8 8 8 7 7 6 5 4 4 4 3 3 3 2 1 2 2 1 2 2 2 3 3 3 4 4 3 3 3 2 5 7 5 5 5 4 2 1 1 2 2
7 7 7 7 7 7 7 6 5 4 4 4 4 4 3 3 2 1 1 1 1 2 2 3 4 4 4 3 2 2 2 1 2 3 2 2 2 3 2 2 1 1 1
7 6 6 7 7 7 7 6 6 5 5 4 4 4 3 4 4 2 1 0 0 1 2 2 3 5 5 3 2 1 1 1 1 2 2 2 2 2 2 2 1 1 1
6 6 6 6 7 7 7 6 6 6 6 5 4 4 4 4 4 4 4 1 0 0 1 2 3 5 4 1 1 1 1 1 1 1 1 1 1 2 2 2 2 1 1
6 6 6 6 5 6 7 7 7 7 7 6 5 5 4 4 5 6 5 3 1 1 1 3 4 5 4 2 1 1 1 1 1 1 1 1 1 1 2 2 2 2 1
6 6 6 6 6 6 6 7 7 7 6 5 5 5 5 5 5 5 5 4 3 2 2 3 5 5 3 2 2 2 2 2 1 2 1 1 1 2 2 2 2 2 2
6 6 6 6 6 5 5 3 5 3 4 5 4 4 4 5 5 6 4 4 4 3 3 3 3 3 3 3 3 3 2 2 2 2 1 1 1 1 1 1 1 2 2
6 6 6 6 6 6 5 3 0 2 5 5 4 3 3 5 9 8 6 5 4 4 3 4 4 3 3 3 3 3 3 2 2 2 2 2 2 2 2 1 1 1 2
6 6 6 6 6 6 6 6 5 2 2 3 4 5 6 8 9 8 7 5 5 5 4 4 4 4 3 3 3 3 3 2 2 2 2 2 2 2 2 2 2 2 2
7 7 6 6 6 7 7 6 6 6 5 4 4 6 9 9 9 8 7 5 4 5 5 5 4 4 3 3 3 3 3 2 2 2 2 2 2 2 2 2 2 2 3
7 6 6 6 6 7 6 7 6 7 6 6 5 5 8 8 7 7 8 6 6 6 6 5 4 3 3 2 2 2 2 2 2 2 2 2 2 2 2 2 2 3 3
5 7 7 6 6 6 7 7 6 6 6 5 6 6 7 7 6 6 7 7 6 5 4 4 4 3 2 2 2 2 1 1 1 1 2 2 2 2 3 3 3 3 3
6 6 8 7 6 6 6 6 5 6 6 6 5 7 9 7 7 7 7 7 6 5 4 4 4 3 3 3 2 2 2 2 1 2 2 2 2 2 3 3 3 3 3
5 5 6 6 5 5 5 5 5 5 5 5 5 7 11 7 6 6 6 6 6 4 3 3 3 3 2 3 3 2 2 2 2 2 2 3 3 3 3 3 3 3 3
5 5 5 5 5 5 5 5 4 4 4 4 4 5 6 5 5 4 4 4 3 3 3 3 3 3 2 2 2 2 2 2 2 2 2 3 3 3 3 3 3 4 4
4 5 5 5 4 5 5 4 4 4 3 3 3 4 5 5 4 3 3 3 3 3 3 3 3 3 4 3 3 3 2 2 2 2 3 4 4 4 3 3 4 5 4
4 3 3 4 4 4 4 3 3 3 2 2 3 3 3 4 4 4 3 3 3 3 3 3 3 3 3 3 3 3 2 2 1 1 3 3 4 3 3 4 4 5 5
4 4 3 3 3 3 3 3 3 2 2 2 3 3 3 3 3 3 3 3 3 3 3 3 4 4 4 4 4 4 3 2 0 2 3 3 4 3 3 4 5 5 6
Wind_Direction
165 165 161 159 154 145 138 124 111 74 82 87 80 76 75 69 50 38 44 42 30 31 22 36 35 31 14 352 323 212 115 121 142 128 112 118 114 121 135 135 132 134 135
164 161 160 145 146 148 140 123 126 119 104 94 86 74 67 64 54 46 39 42 38 39 32 33 27 34 32 8 3 29 98 123 138 136 131 131 129 144 146 148 140 139 136
165 163 157 153 149 149 148 144 139 127 115 110 100 90 76 60 58 44 43 58 52 48 44 41 34 42 27 30 39 46 66 100 128 140 140 138 137 138 126 121 119 129 135
161 161 160 161 156 153 151 149 148 141 127 118 110 102 94 65 46 37 35 85 96 78 61 51 46 53 41 37 49 61 80 98 116 130 137 140 128 133 134 140 136 147 139
157 159 158 157 153 153 153 149 143 146 145 132 125 116 114 108 36 14 338 89 90 84 71 71 67 69 62 55 63 52 81 102 120 131 137 136 136 146 166 178 158 149 146
161 160 156 159 160 160 158 150 146 147 133 131 127 116 101 75 15 27 38 35 71 81 81 86 90 74 76 79 77 65 60 80 96 128 141 151 160 169 151 167 154 172 179
164 163 164 167 167 168 167 157 158 153 148 143 136 121 112 59 28 29 31 53 67 62 65 66 68 58 67 77 78 70 56 52 54 82 125 150 179 169 170 184 181 187 181
171 173 171 170 169 165 162 163 161 155 156 158 149 143 138 94 40 30 17 106 102 86 73 69 70 63 52 55 87 82 67 45 31 54 68 64 98 120 156 193 187 159 163
178 178 174 170 169 171 170 169 164 163 170 169 157 152 146 120 53 31 9 149 124 107 95 78 83 83 59 53 86 89 91 93 71 73 84 94 89 91 106 160 203 187 217
177 177 171 172 175 175 172 170 168 171 176 173 166 164 156 145 131 66 7 193 144 131 115 102 86 89 90 56 89 110 107 99 110 111 94 120 147 151 168 208 233 243 236
171 169 172 174 176 174 169 172 174 181 183 177 166 167 164 156 157 157 136 225 169 152 146 129 115 110 105 67 36 87 122 138 154 163 167 177 175 179 188 198 206 254 288
165 168 174 176 188 180 171 178 179 183 184 184 182 187 178 165 167 174 171 190 334 94 130 126 126 137 141 136 72 60 60 20 218 164 154 168 176 180 179 174 185 200 141
172 176 175 179 187 176 178 185 188 194 200 195 188 192 189 173 166 168 174 178 133 116 99 131 154 172 176 178 203 230 248 250 262 226 211 205 177 161 151 160 172 185 213
173 174 175 179 189 188 191 196 202 203 204 198 194 197 189 174 171 178 186 183 175 175 166 153 167 181 201 200 191 219 226 239 253 264 241 208 180 159 163 172 188 196 202
181 182 182 190 194 195 198 216 215 212 202 206 207 198 192 189 179 174 182 185 191 176 169 179 188 188 194 201 205 208 207 216 245 260 272 251 188 175 195 207 205 218 219
190 191 190 193 193 195 194 195 95 159 158 156 145 164 164 151 151 155 163 170 170 165 186 204 202 203 207 208 210 207 210 220 232 239 245 248 229 214 207 207 202 225 248
201 200 198 198 199 199 203 199 194 182 143 155 165 160 161 163 161 165 167 173 186 181 207 221 213 211 206 206 214 218 217 214 219 245 237 243 257 246 225 215 222 232 250
208 203 201 202 204 206 208 209 203 197 196 197 197 184 176 176 177 178 166 163 198 205 222 227 221 214 204 207 216 224 219 209 215 235 242 246 246 252 251 243 240 240 246
211 208 205 209 210 210 207 207 209 205 202 195 175 179 186 178 177 183 175 203 216 217 222 227 226 214 206 209 223 230 217 201 214 226 234 246 249 261 266 267 261 256 255
213 212 211 215 215 215 213 210 212 209 207 195 186 181 171 174 185 188 200 215 224 221 216 222 228 218 209 208 209 233 234 208 238 253 265 260 252 255 263 260 259 259 255
219 212 211 222 222 221 218 215 212 212 209 202 193 178 176 194 197 195 197 208 220 224 218 216 214 218 214 204 207 218 221 224 242 264 274 285 286 275 266 264 258 258 264
227 222 217 219 222 223 223 223 218 214 212 205 181 174 178 194 201 202 204 207 212 212 217 216 214 211 204 197 196 205 221 236 246 262 267 268 268 263 261 261 265 270 272
229 220 222 220 218 205 210 224 221 212 206 199 182 172 176 201 213 203 194 197 198 197 204 206 205 199 183 164 164 171 199 239 257 263 271 274 270 265 266 267 268 274 275
235 229 225 221 215 212 211 215 222 219 210 197 185 183 183 193 203 193 189 188 182 189 194 197 196 190 186 171 168 166 182 224 251 267 265 265 267 270 273 279 278 280 277
232 222 219 221 222 215 213 211 210 209 202 198 192 191 184 183 194 195 191 185 186 194 191 177 161 169 181 162 148 159 149 131 112 277 266 271 275 280 290 291 292 294 287
238 228 220 215 214 209 209 206 208 198 195 193 188 181 178 180 191 194 188 185 192 192 189 176 167 163 148 145 144 127 115 110 56 303 273 266 272 279 288 290 290 285 285
Height
1538 1539 1541 1541 1542 1543 1544 1545 1545 1545 1545 1545 1544 1544 1544 1543 1543 1543 1542 1542 1542 1542 1542 1541 1541 1541 1540 1541 1541 1541 1541 1541 1541 1542 1542 1542 1542 1542 1542 1543 1543 1543 1544
1537 1538 1539 1540 1541 1542 1542 1543 1543 1544 1544 1544 1544 1544 1544 1543 1543 1542 1542 1542 1541 1541 1541 1540 1540 1540 1539 1539 1539 1540 1540 1540 1540 1540 1541 1541 1541 1541 1542 1542 1543 1543 1543
1535 1536 1538 1539 1540 1540 1541 1542 1543 1543 1543 1544 1543 1543 1543 1543 1543 1542 1542 1541 1541 1541 1540 1540 1539 1539 1538 1538 1538 1538 1538 1539 1539 1539 1540 1540 1541 1541 1541 1542 1542 1542 1542
1534 1535 1536 1537 1538 1539 1540 1541 1542 1542 1543 1543 1543 1543 1543 1543 1542 1542 1542 1541 1541 1540 1540 1539 1539 1539 1538 1538 1538 1538 1538 1538 1538 1538 1539 1539 1540 1540 1541 1541 1541 1542 1541
1533 1534 1535 1536 1537 1538 1539 1540 1541 1541 1542 1542 1542 1542 1542 1542 1542 1542 1541 1541 1541 1541 1540 1539 1539 1538 1538 1537 1537 1537 1537 1537 1537 1538 1538 1538 1539 1539 1540 1540 1541 1541 1541
1531 1532 1534 1535 1536 1537 1538 1539 1540 1540 1541 1541 1541 1542 1542 1542 1542 1542 1541 1541 1541 1540 1540 1539 1539 1538 1538 1537 1537 1537 1537 1537 1537 1537 1537 1537 1538 1538 1539 1539 1540 1540 1540
1529 1531 1532 1534 1535 1536 1537 1538 1538 1539 1540 1540 1540 1541 1541 1541 1541 1541 1541 1541 1540 1540 1540 1539 1539 1538 1538 1537 1537 1536 1536 1536 1537 1537 1536 1536 1537 1537 1538 1538 1538 1539 1539
1527 1529 1530 1532 1533 1534 1535 1536 1537 1538 1538 1539 1539 1539 1540 1540 1540 1540 1540 1540 1540 1540 1539 1539 1538 1538 1537 1537 1536 1536 1536 1535 1535 1536 1535 1536 1536 1536 1537 1537 1537 1538 1538
1525 1527 1528 1529 1531 1532 1533 1534 1535 1536 1537 1537 1538 1538 1538 1539 1539 1540 1540 1539 1539 1539 1539 1538 1538 1537 1537 1536 1536 1535 1535 1534 1535 1535 1535 1535 1534 1534 1535 1535 1536 1536 1536
1523 1524 1526 1527 1529 1530 1531 1532 1534 1535 1535 1536 1536 1537 1537 1537 1538 1538 1539 1538 1538 1538 1538 1537 1537 1537 1536 1536 1535 1534 1534 1534 1534 1533 1534 1533 1533 1533 1534 1534 1534 1534 1534
1521 1522 1524 1525 1526 1527 1529 1530 1532 1533 1534 1534 1535 1535 1536 1536 1536 1537 1537 1537 1537 1537 1537 1537 1536 1536 1536 1535 1535 1534 1534 1534 1533 1533 1533 1533 1533 1532 1532 1532 1532 1533 1533
1518 1519 1521 1522 1524 1526 1527 1528 1529 1531 1532 1533 1533 1534 1534 1534 1535 1535 1536 1536 1536 1536 1536 1536 1535 1535 1535 1535 1534 1534 1534 1534 1533 1533 1533 1532 1532 1532 1531 1531 1531 1531 1532
1515 1517 1518 1520 1521 1523 1524 1525 1527 1528 1529 1530 1531 1532 1532 1532 1533 1533 1534 1534 1534 1534 1534 1534 1534 1535 1534 1534 1534 1533 1533 1533 1533 1532 1532 1532 1532 1531 1531 1530 1530 1530 1530
1512 1513 1515 1516 1518 1520 1521 1522 1524 1525 1526 1527 1528 1529 1530 1530 1530 1531 1531 1532 1532 1532 1533 1533 1533 1533 1533 1533 1532 1532 1532 1531 1531 1531 1531 1531 1531 1530 1530 1529 1529 1529 1528
1509 1510 1512 1513 1514 1516 1517 1519 1520 1521 1523 1524 1525 1526 1527 1527 1527 1528 1529 1529 1529 1530 1530 1531 1531 1531 1531 1531 1530 1530 1530 1530 1530 1530 1530 1530 1529 1529 1529 1528 1528 1527 1527
1505 1507 1508 1510 1511 1512 1514 1515 1516 1518 1519 1520 1522 1523 1523 1524 1525 1525 1526 1527 1528 1528 1528 1528 1529 1529 1529 1528 1528 1528 1528 1528 1528 1528 1528 1528 1528 1527 1527 1526 1526 1526 1525
1502 1503 1505 1506 1508 1509 1510 1511 1513 1514 1516 1516 1518 1519 1520 1521 1522 1522 1523 1524 1525 1525 1526 1526 1526 1526 1526 1526 1526 1526 1525 1525 1525 1525 1525 1525 1525 1525 1525 1524 1524 1523 1523
1499 1500 1501 1502 1504 1505 1507 1508 1509 1510 1511 1512 1513 1515 1516 1517 1518 1519 1520 1521 1521 1522 1522 1522 1522 1523 1523 1523 1523 1523 1523 1523 1522 1522 1522 1523 1523 1522 1522 1522 1521 1521 1520
1495 1496 1497 1499 1500 1502 1503 1505 1506 1507 1508 1508 1509 1510 1512 1513 1514 1515 1516 1517 1517 1517 1518 1518 1519 1519 1519 1519 1519 1520 1520 1520 1519 1519 1519 1519 1520 1519 1519 1519 1518 1518 1517
1491 1493 1494 1495 1497 1498 1500 1501 1502 1503 1504 1505 1505 1506 1507 1509 1509 1510 1512 1513 1513 1513 1514 1514 1515 1515 1515 1515 1515 1516 1516 1516 1516 1516 1516 1516 1516 1515 1515 1515 1515 1514 1513
1487 1488 1489 1491 1493 1494 1496 1497 1498 1499 1500 1501 1501 1502 1504 1505 1505 1506 1507 1508 1508 1509 1509 1510 1510 1511 1511 1511 1511 1511 1512 1512 1511 1511 1512 1512 1512 1512 1511 1511 1511 1510 1510
1484 1485 1486 1487 1488 1490 1492 1493 1494 1495 1496 1497 1498 1499 1499 1500 1501 1502 1502 1503 1504 1504 1505 1506 1506 1506 1506 1506 1506 1507 1507 1507 1507 1507 1507 1508 1508 1508 1508 1507 1507 1506 1506
1481 1481 1482 1483 1484 1486 1487 1489 1490 1491 1492 1494 1495 1495 1495 1496 1497 1498 1498 1498 1499 1500 1500 1501 1501 1502 1502 1502 1502 1502 1503 1503 1503 1503 1503 1503 1504 1503 1503 1503 1503 1502 1502
1478 1479 1479 1480 1481 1482 1483 1485 1486 1488 1489 1490 1490 1491 1491 1492 1493 1493 1493 1494 1495 1495 1496 1497 1497 1497 1498 1498 1498 1498 1499 1499 1499 1499 1499 1500 1500 1500 1499 1499 1499 1498 1498
1475 1475 1476 1477 1478 1478 1480 1481 1482 1484 1485 1486 1486 1487 1488 1488 1489 1489 1489 1490 1491 1491 1492 1493 1493 1493 1494 1494 1494 1494 1495 1495 1495 1495 1496 1496 1496 1496 1495 1495 1495 1494 1493
1472 1472 1473 1474 1475 1476 1477 1477 1479 1480 1481 1481 1482 1483 1483 1484 1485 1485 1486 1486 1487 1488 1488 1489 1489 1490 1490 1490 1491 1491 1491 1491 1491 1492 1492 1492 1491 1491 1491 1491 1490 1490 1489